www.pogodaiklimat.ru

Погода и климат >> Архив погоды >> Россия >> Ростовская область >> Морозовск


ПОГОДА в Морозовске

  • Прогноз погоды в Морозовске
  • Монитор погоды в Морозовске

АРХИВ ПОГОДЫ в Морозовске

Время (UTC), дата Ветер
(напр.,м/с)
 
Видим.   Явления Облачность Т
(С)
Тd
(С)
f
(%)
Тe
(С)
Тes
(С)
Комфортность P
(гПа)
Po
(гПа)
Тmin
(С)
Tmax
(С)
R
(мм)
R24
(мм)
S
(см)
15 11.08 СЗ 6-11
{13}
20 км 8/5 1000 м
[Cu hum Ac cuf]
+23.9 +6.3 32 +24 +24 комфорт 1014.0 1003.6 +25.2
18 11.08 З 2
{11}
20 км 3/0
[Ac cuf]
+17.3 +7.6 53 +18 +18 1015.4 1004.8
21 11.08 ЮЗ 1 20 км 9/0
[Ac trans]
+15.2 +8.7 65 +16 +16 1015.7 1005.0
00 12.08 З 1 20 км 9/0
[Ac trans]
+15.4 +9.8 69 +16 +16 1015.6 1004.9
03 12.08 З 1 20 км 3/0
[Ac trans]
+14.3 +9.8 74 +15 +15 1016.2 1005.4 +13.1
06 12.08 СЗ 3 20 км ясно +23.4 +6.7 34 +24 +31 комфорт 1016.3 1005.9
09 12.08 СЗ 5
{12}
20 км ясно +25.7 +4.2 25 +25 +33 комфорт 1016.4 1006.1
12 12.08 СЗ 5
{11}
20 км ясно +26.1 +5.5 27 +25 +31 комфорт 1016.3 1006.0
15 12.08 С 4
{11}
20 км ясно +24.6 +3.6 26 +24 +25 комфорт 1017.1 1006.7 +26.7
18 12.08 СЗ 1 20 км ясно +16.7 +5.3 47 +18 +18 1018.4 1007.7
21 12.08 З 1 20 км ясно +12.1 +5.4 64 +12 +12 1019.3 1008.4
00 13.08 З 1 20 км ясно +8.0 +4.2 77 +7 +7 1019.7 1008.6
03 13.08 штиль 0 20 км ясно +10.3 +5.6 73 +10 +10 1020.3 1009.3 +7.7
06 13.08 СЗ 1 20 км ясно +22.3 +5.9 34 +23 +32 комфорт 1020.2 1009.6
09 13.08 С 4 20 км 6/6 600 м
[Cu hum]
+26.8 +6.5 27 +26 +30 жарко 1019.0 1008.7
12 13.08 С 3 20 км 4/3 600 м
[Cu hum Ci fib]
+28.6 +6.7 25 +28 +33 жарко 1017.5 1007.2
15 13.08 СЗ 3 20 км 1/0
[Ci fib]
+27.6 +8.5 30 +27 +28 жарко 1016.8 1006.5 +28.7
18 13.08 штиль 0 20 км ясно +18.8 +9.2 54 +19 +19 1017.7 1007.1
21 13.08 штиль 0 20 км ясно +13.7 +9.2 74 +13 +13 1018.2 1007.4
00 14.08 В 1 20 км ясно +12.4 +8.6 78 +12 +12 1017.8 1007.0
03 14.08 штиль 0 20 км ясно +12.9 +9.5 80 +12 +13 1017.9 1007.0 +10.9
06 14.08 СЗ 1 20 км ясно +26.4 +9.9 35 +27 +37 жарко 1017.6 1007.3
09 14.08 В 2 20 км ясно +30.1 +9.6 28 +30 +45 жарко 1016.1 1005.9
12 14.08 ЮВ 4 20 км ясно +32.0 +9.6 25 +31 +38 жарко 1014.9 1004.8
15 14.08 Ю 2 20 км ясно +30.7 +9.1 26 +30 +31 жарко 1014.2 1004.0 +32.4
18 14.08 ЮВ 2 20 км ясно +20.8 +10.8 53 +23 +23 комфорт 1014.5 1004.0
21 14.08 СВ 1 20 км ясно +17.4 +10.5 64 +18 +18 1014.3 1003.7
00 15.08 СВ 1 20 км ясно +16.5 +10.1 66 +17 +17 1014.0 1003.3
03 15.08 В 1 20 км ясно +17.1 +9.9 63 +18 +19 1014.4 1003.7 +15.4
06 15.08 ЮВ 4 20 км ясно +28.8 +5.0 22 +27 +33 жарко 1013.8 1003.6
09 15.08 ЮВ 7-11
{11}
20 км ясно +32.9 +8.2 22 +32 +36 жарко 1012.7 1002.6
12 15.08 ЮВ 6-11
{13}
20 км ясно +34.8 +8.1 19 +33 +37 жарко 1010.9 1000.9
15 15.08 ЮВ 7-11
{12}
20 км ясно +33.3 +8.7 22 +32 +32 жарко 1009.9 999.9 +34.9
18 15.08 В 2
{11}
20 км 3/0
[Ci fib]
+24.8 +9.8 39 +26 +26 жарко 1010.7 1000.4
21 15.08 ЮВ 3 20 км 5/0
[Ci fib]
+22.6 +10.2 45 +24 +24 комфорт 1010.9 1000.5
00 16.08 В 2 20 км ясно +18.5 +10.3 59 +19 +19 1010.9 1000.4
03 16.08 ЮВ 3 20 км 8/0
[Ci fib]
+18.4 +9.6 56 +19 +19 1011.3 1000.8 +16.7
06 16.08 ЮВ 6 20 км 9/0
[Ci]
+23.7 +13.5 53 +26 +29 жарко 1010.4 1000.0
09 16.08 ЮВ 8-12
{13}
20 км 9/0
[Ac trans Ci sp]
+27.9 +13.8 42 +30 +31 жарко 1009.1 999.0
12 16.08 ЮВ 7-10
{13}
20 км 9/0
[Ac As Ci fib]
+31.6 +11.2 29 +32 +33 жарко 1007.6 997.6
15 16.08 Ю 2
{12}
20 км 10/0
[Ac As Cs]
+31.2 +11.8 30 +32 +32 жарко 1007.1 997.0 +32.7
18 16.08 В 1 20 км слаб. ливневой дождь 10/6 600 м
[Cb calv Ac und]
+26.6 +15.2 50 +29 +29 жарко 1007.0 996.8
21 16.08 Ю 2 20 км {ливн. осадки} 9/0
[Ac trans Ci fib]
+25.6 +14.5 50 +28 +28 жарко 1007.9 997.7
00 17.08 В 2 20 км {ливн. осадки} 10/0
[Ac und]
+22.9 +11.0 47 +25 +25 комфорт 1008.1 997.7
03 17.08 В 3 20 км 10/0
[Ac und]
+21.4 +9.6 47 +23 +23 комфорт 1008.2 997.8 +21.1 0.0
06 17.08 ЮВ 4 20 км 9/0
[Ac trans]
+24.0 +12.0 47 +26 +28 жарко 1008.5 998.2 +21.0
09 17.08 ЮВ 5 20 км {ливн. осадки} 9/0
[Ac trans Ci fib]
+27.2 +12.0 39 +28 +33 жарко 1008.0 997.8
12 17.08 Ю 2 20 км {ливн. осадки} 8/1 600 м
[Cu hum Ac trans Ci fib]
+29.8 +12.6 35 +31 +36 жарко 1007.3 997.1
15 17.08 СЗ 2 20 км 6/3 600 м
[Sc diur, vesp Ac trans Cc]
+29.0 +12.3 36 +30 +31 жарко 1007.4 997.3 +30.7
18 17.08 З 2 20 км 3/0
[Ci fib]
+22.7 +13.6 56 +26 +26 жарко 1008.9 998.5
21 17.08 штиль 0 20 км ясно +18.3 +13.8 75 +19 +19 1009.7 999.2
00 18.08 В 1 20 км ясно +17.0 +13.4 79 +18 +18 1009.9 999.3
03 18.08 штиль 0 20 км 3/0
[Ci fib]
+16.3 +13.1 81 +16 +17 1010.2 999.6 +14.9
06 18.08 В 2 20 км 10/3 600 м
[Cb calv Ac As]
+26.2 +15.5 52 +29 +31 жарко 1010.2 1000.0
09 18.08 СЗ 1 20 км 10/6 600 м
[Cb calv Ac As]
+27.6 +15.1 46 +30 +32 жарко 1010.1 999.9
12 18.08 СЗ 1 20 км слаб. ливневой дождь 10/8 600 м
[Cb calv Ac As]
+24.0 +19.3 75 +29 +30 душно 1010.7 1000.4

 

Местоположение метеостанции Морозовск (Ростовская область, Россия): широта 48.35 долгота 41.87 высота над уровнем моря 90 м.

В архиве по умолчанию представлена погода в Морозовске за последнюю неделю. Архивные данные за месяц целиком и за предыдущие месяцы, начиная с января 2011 года, Вы можете получить, выбрав интересующий диапазон дат из раскрывающегося списка и нажав кнопку "Ввод!".


*Определитесь, кто Вы:
робот инопланетянин человек

Внимание! Время в таблицах - всемирное. Для получения местного времени необходимо прибавить поправку, которая равна 3 ч.

Смотрите также архив погоды в соседних городах и на ближайших метеорологических станциях:

Погода в Белой Калитве (Ростовская область, Россия) (79 км)
Погода в Цимлянске (Ростовская область, Россия) (82 км)
Погода в Нижнем Чире (Волгоградская область, Россия) (92 км)
Погода в Боковской (Ростовская область, Россия) (97 км)
Погода в Константиновске (Ростовская область, Россия) (103 км)
Погода в Каменск-Шахтинском (Ростовская область, Россия) (116 км)
Погода в Семикаракорске (Ростовская область, Россия) (121 км)
Погода в Калаче-на-Дону (Волгоградская область, Россия) (124 км)
Погода в Котельниково (Волгоградская область, Россия) (124 км)
Погода в Миллерово (Ростовская область, Россия) (127 км)

Пояснения к столбцам:

Ветер - указаны скорость ветра в м/с - средняя за 10 мин, порывы в срок и между сроками (в фигурных скобках) и направление, откуда дует ветер: С - северный, СВ - северо-восточный, В - восточный, ЮВ - юго-восточный, Ю - южный, ЮЗ - юго-западный, З - западный, СЗ - северо-западный.
Видимость - горизонтальная дальность видимости в метрах или километрах. При видимости от 1 до 10 км при отсутствии осадков обычно наблюдается дымка, при ухудшении видимости до 1 км и менее - туман. В сухую погоду видимость может ухудшаться дымом, пылью или мглою.
Явления - указаны атмосферные явления, наблюдавшиеся в срок или в последний час перед сроком; фигурными скобками обозначены явления, наблюдавшиеся между сроками (за 1-3 часа до срока); квадратными скобками обозначены град или гололедные отложения с указанием их диаметра в мм.
Облачность - указаны через наклонную черту общая и нижняя облачность в баллах и высота нижней границы облаков в метрах; квадратными скобками обозначены формы облаков: Ci - перистые, Cs - перисто-слоистые, Cc - перисто-кучевые, Ac - высококучевые, As - высокослоистые, Sc - слоисто-кучевые, Ns - слоисто-дождевые, Cu - кучевые, Cb - кучево-дождевые. Подробнее классификацию облаков см. в Атласе облаков (PDF).
T - Температура воздуха - температура, измеренная на высоте 2 м над землей.
Td - Температура точки росы - температура, при понижении до которой содержащийся в воздухе водяной пар достигнет насыщения.
f - Относительная влажность воздуха - влажноcть воздуха, измеренная на высоте 2 м над землей.
Te - Эффективная температура - температура, которую ощущает одетый по сезону человек в тени. Характеристика душности погоды. При расчете учитывается влияние влажности воздуха и скорости ветра на теплоощущения человека.
Tes - Эффективная температура на солнце - температура, которую ощущает человек, с поправкой на солнечный нагрев. Характеристика знойности погоды. Зависит от высоты солнца над горизонтом, облачности и скорости ветра. Ночью, в пасмурную погоду, а также при ветре 12 м/с и более поправка равна нулю.
P - Атмосферное давление - приведенное к уровню моря атмосферное давление.
Po - Атмосферное давление - измеренное на уровне метеостанции атмосферное давление.
Tmin - Минимальная температура - минимум температуры воздуха на высоте 2 м над землей.
Tmax - Максимальная температура - максимум температуры воздуха на высоте 2 м над землей.
R - Количество осадков - Количество выпавших осадков за период времени, мм. При наведении курсора мыши на число - период времени, за который выпало указанное количество осадков.
R24 - Количество осадков - Количество выпавших осадков за 24 часа, мм.
S - Снежный покров - Высота снежного покрова, см. При наведении курсора мыши на число - состояние снежного покрова и степень покрытия местности в баллах.